Overview Statistics Trail Chart Weather Telemetry Raw packets
 

This is the latest recevied weather packets stored in our database for station/object KF0WJA. If no packets are shown the sender has not sent any weather packets the latest 10 day(s).

<< 56 57 58 59 60 61 62 >>
Time Temp. Humidity Pressure Rain* Wind** Luminosity Snow
1788282444 36.11° C 35% 1019.2 hPa 0 mm - 652 W/m² -
1788282138 35.56° C 36% 1019.2 hPa 0 mm - 662 W/m² -
1788281837 35.56° C 36% 1019.3 hPa 0 mm - 664 W/m² -
1788281532 36.11° C 36% 1019.1 hPa 0 mm - 659 W/m² -
1788281229 35.56° C 36% 1019.3 hPa 0 mm - 663 W/m² -
1788280929 35.56° C 36% 1019.3 hPa 0 mm - 663 W/m² -
1788280624 35.56° C 36% 1019.4 hPa 0 mm - 665 W/m² -
1788280324 35.56° C 36% 1019.2 hPa 0 mm - 642 W/m² -
1788280019 35° C 37% 1019.2 hPa 0 mm - 629 W/m² -
1788279718 35° C 37% 1019.4 hPa 0 mm - 622 W/m² -
1788279417 35° C 37% 1019.3 hPa 0 mm - 620 W/m² -
1788279117 35° C 38% 1019.5 hPa 0 mm - 631 W/m² -
1788278827 35° C 38% 1019.5 hPa 0 mm - 616 W/m² -
1788278508 34.44° C 38% 1019.4 hPa 0 mm - 593 W/m² -
1788278208 34.44° C 39% 1019.5 hPa 0 mm - 566 W/m² -
1788277906 33.89° C 39% 1019.5 hPa 0 mm - 567 W/m² -
1788277598 33.89° C 39% 1019.5 hPa 0 mm - 540 W/m² -
1788277292 33.89° C 40% 1019.5 hPa 0 mm - 532 W/m² -
1788276988 33.89° C 41% 1019.5 hPa 0 mm - 522 W/m² -
1788276687 33.33° C 41% 1019.4 hPa 0 mm - 498 W/m² -
1788276382 33.33° C 41% 1019.6 hPa 0 mm - 471 W/m² -
1788276081 33.33° C 41% 1019.5 hPa 0 mm - 453 W/m² -
1788275777 33.33° C 42% 1019.5 hPa 0 mm - 420 W/m² -
1788275476 33.33° C 42% 1019.4 hPa 0 mm - 396 W/m² -
1788275176 32.78° C 43% 1019.4 hPa 0 mm - 371 W/m² -

* Rain latest hour (hover to see other rain measurements)
** Current wind speed in m/s (hover to see current wind gust speed)